星链-36747(STARLINK-36747)

导读

STARLINK-36747是由美国于2026年2月11日发射的星链卫星,星链计划是SpaceX推进的低轨卫星互联网项目,该卫星旨在为全球提供高速低延迟宽带互联网服务,补充完善星链星座组网,进一步提升星链系统全球覆盖能力与服务容量,服务民用通信及相关商业场景。

基本信息
目录编号:
67730
目录名称:
STARLINK-36747
国际标识:
2026-026K
轨道中心:
EARTH
卫星名称:
星链-36747
卫星全名:
星链-36747(STARLINK-36747)
卫星状态:
在轨 (已飞行122 天)
发射日期:
2026-02-11 UTC
国别 :
美国 (US)
星等 :
--
轨道信息
数据来源 国际轨道数据 AOE轨道数据
星历时间 2026-06-12T10:26:33+0800
1天前
查看轨道信息
2026-06-11T21:00:00+0800
1天前
查看轨道信息
半长轴 6843.654km 6843.726km
偏心率 0.000145 0.0001219
轨道倾角 97.285° 97.286°
近地点辐角 93.963° 93.971°
升交点赤经 216.355° 215.801°
平近点角 266.178° 56.146°
近地点 464.524km 464.754km
远地点 466.51km 466.424km
周期 93.906分钟 93.907分钟
每日圈数 15.334538 15.334299
详细信息
固有亮度:
5
最大亮度:
2.5
卫星平台:
Starlink V1.0
覆盖范围:
全球
运营商:
太空探索技术公司
运营商所在国:
美国
制造商(研发单位):
太空探索技术公司
制造商所在国:
美国
使用方式:
暂无
卫星简介
Starlink 计划是 SpaceX 推出的全球卫星互联网项目,通过发射低轨道卫星,为全球尤其是偏远地区提供高速、低延迟的互联网服务。自 2019 年起,Starlink 已部署数千颗卫星,旨在缩小全球数字鸿沟,推动互联网普及。该项目还为军事、航空等行业提供通信支持,带来广泛经济效益。
2D轨道图
3D轨道图
轨道高度分析图
轨道倾角分析图
轨道综合分析图
查看轨道综合分析图